178  
ASUS41 KBOX 302010  
RWRBOX  
 
REGIONAL WEATHER ROUNDUP  
NATIONAL WEATHER SERVICE TAUNTON MA  
400 PM EDT SUN APR 30 2017  
 
NOTE: "FAIR" INDICATES FEW OR NO CLOUDS BELOW 12,000 FEET WITH NO  
SIGNIFICANT WEATHER AND/OR S TO VISIBILITY
.  
 
MAZALL-302100-  
EASTERN MASSACHUSETTS  
 
CITY SKY/WX TMP DP RH WIND PRES REMARKS
 
BOSTON CLOUDY 46 37 71 SE9 30.30R  
BEVERLY CLOUDY 47 36 65 S10 30.28S  
LAWRENCE CLOUDY 49 35 58 SE6 30.29F  
BEDFORD PTSUNNY 50 34 54 SE10 30.25F  
BLUE HILL N/A 45 37 73 SE9 30.24F  
NORWOOD CLOUDY 48 40 73 SE6 30.26F  
MARSHFIELD CLOUDY 45 37 76 SE8G14 30.28F  
PLYMOUTH CLOUDY 46 33 60 E9 30.28F  
TAUNTON CLOUDY 47 35 63 E10 30.27S  
NEW BEDFORD CLOUDY 50 34 54 E12 30.28R  

 
 
MAZALL-302100-  
CAPE COD AND THE ISLANDS  
 
CITY SKY/WX TMP DP RH WIND PRES REMARKS
 
FALMOUTH CLOUDY 48 32 53 MISG 30.29R  
HYANNIS CLOUDY 49 35 58 E7 30.27F  
CHATHAM CLOUDY 46 38 73 E9 30.28F  
PROVINCETOWN CLOUDY 45 38 76 SE7 30.30R  
NANTUCKET CLOUDY 48 35 60 E12G17 30.27F  
MARTHAS VNYRD CLOUDY 49 35 58 E17G25 30.27F  

 
 
MAZALL-302100-  
CENTRAL AND WESTERN MASSACHUSETTS  
 
CITY SKY/WX TMP DP RH WIND PRES REMARKS
 
WORCESTER CLOUDY 51 36 56 SE5 30.24S  
FITCHBURG CLOUDY 57 38 48 S6 30.25S  
ORANGE LGT RAIN 50 41 71 CALM 30.24S  
SPRINGFIELD CLOUDY 52 42 68 CALM 30.23F  
WESTFIELD CLOUDY 51 45 79 NE3 30.24F  
NORTH ADAMS CLOUDY 51 41 68 CALM 30.21F  
PITTSFIELD CLOUDY 50 42 74 NE6 30.19F  

 
 
RIZALL-302100-  
RHODE ISLAND  
 
CITY SKY/WX TMP DP RH WIND PRES REMARKS
 
PROVIDENCE CLOUDY 55 39 54 S16 30.26R  
NEWPORT CLOUDY 51 38 60 SE8G18 30.26R  
BLOCK ISLAND CLOUDY 48 40 73 SE13G21 30.28R  
SMITHFIELD PTSUNNY 53 43 68 E10 30.25S  
WESTERLY CLOUDY 50 39 66 E12 30.28R  

 
 
CTZALL-302100-  
CONNECTICUT  
 
CITY SKY/WX TMP DP RH WIND PRES REMARKS
 
BRADLEY INTL CLOUDY 52 44 74 N8 30.24F  
HARTFORD CLOUDY 55 43 63 NE8 30.24F  
BRIDGEPORT CLOUDY 54 44 69 E12 30.25S  
DANBURY CLOUDY 55 43 63 SE9 30.23F  
GROTON CLOUDY 50 39 66 SE12 30.27R  
NEW HAVEN CLOUDY 52 41 66 E12 30.25F  
CHESTER CLOUDY 50 37 62 SE8 30.25F  
MERIDEN CLOUDY 56 40 55 S10 30.25S  
WILLIMANTIC CLOUDY 58 42 55 S9 30.25R  
OXFORD CLOUDY 52 37 58 S7 30.24F  

 
 
MEZ002-015-021-024-NHZ003-005-008-011-012-014-VTZ005-008-302100-  
NORTHERN NEW ENGLAND  
 
CITY SKY/WX TMP DP RH WIND PRES REMARKS
 
PORTLAND ME CLOUDY 47 30 51 SW10 30.27R  
BANGOR ME CLOUDY 56 25 30 W5 30.22F  
CONCORD NH CLOUDY 55 33 43 SE7 30.20F  
MANCHESTER NH CLOUDY 55 34 45 SW8 30.23F  
NASHUA NH CLOUDY 55 41 59 SE6 30.26F  
PORTSMOUTH NH LGT RAIN 45 35 66 S9 30.26F  
JAFFREY NH CLOUDY 52 43 71 CALM 30.24S  
KEENE NH CLOUDY 52 35 52 S3 30.23F  
BURLINGTON VT CLOUDY 42 33 70 N5 30.24F  
MT. WASHINGTON LGT RAIN 41 28 60 NW9 N/A  

 
 
NYZ052-076-302100-  
EASTERN NEW YORK  
 
CITY SKY/WX TMP DP RH WIND PRES REMARKS
 
ALBANY CLOUDY 50 35 56 NE5 30.22F  
NEW YORK CITY CLOUDY 60 38 43 SE13 30.22F  

 
 
ANZALL-302100-  
MARINE OBSERVATIONS  
 
STATION/POSITION TIME TEMP WIND PRES VSBY WAVE
 
AIR SEA DIR/SP/G HT/PER  
(UTC) (F) (DEG/KT/KT) (MB) (MI) (FT/S)  
BOSTON BUOY 1850 44 49 110/ 12/ 16 1024.6 3/ 6  
BUZZARDS BAY 1900 47 120/ 20/ 21 1024.9F  
NANTUCKET SOUND 1950 50 1024.2F 2/ 4  
MASS BAY-STELLWA 1904 44 46 140/ 10/ 12 1024.9F 3/ 6  
ISLE OF SHOALS 1900 43 140/ 15/ 16 1024.7F  
S OF BLOCK IS 1955 49 N/A 3/ 7  

 
   
.....................KEY......................
 
 
SKY/WX - SKY CONDITION/PRESENT WEATHER  
TMP - TEMPERATURE IN FAHRENHEIT  
DWPT - DEWPOINT IN FAHRENHEIT  
RH - RELATIVE HUMIDITY IN PERCENT  
WIND - DIRECTION AND SPEED IN MPH  
PRES - MEAN SEA LEVEL PRESSURE IN INCHES OF HG  
WCI - WIND CHILL INDEX  
VSB - VISIBILITY IN MILES  
HX - HEAT INDEX  
TC - TEMPERATURE IN CELSIUS  
VRB - VARIABLE WIND DIRECTION  
N/A - NOT AVAILABLE  
 
 
CLICK HERE TO GO TO PREVIOUS BULLETINS.

The Nexlab MA Page
The Nexlab RI Page
The Nexlab NH Page
The Nexlab CT Page Main Text Page